BAW183 EGLL-KJFK

Flight info

Callsign BAW183
Flight time 6h 56m
Altitude 38000
Route CPT L9 BUCGO DCT FELCA DCT OFSOX DCT SLANY DCT MALOT/M081F380 DCT 5330N02000W 54N030W 53N040W 5230N05000W DCT SAXAN/N0478F380 N548A EBONY DCT LFV DCT SEY PARCH4
Aircraft B772/H-SDE2E3FGHIJ5LORVWXY/LB1D1

Departure

Time 2026-05-04 18:43
Airport London Heathrow Airport (EGLL)

Arrival

Time 2026-05-05 01:40
Airport John F. Kennedy International Airport (KJFK)
Time Latitude Longitude Altitude Speed Heading
2026-05-04 17:13 51.47144 -0.47498 94 ft 0 kts 270°
2026-05-04 18:26 51.47144 -0.47497 90 ft 2 kts 270°
2026-05-04 18:26 51.47144 -0.47457 91 ft 4 kts 270°
2026-05-04 18:26 51.47144 -0.47413 90 ft 4 kts 270°
2026-05-04 18:26 51.47145 -0.47380 90 ft 4 kts 246°
2026-05-04 18:27 51.47161 -0.47354 90 ft 4 kts 189°
2026-05-04 18:27 51.47186 -0.47353 90 ft 4 kts 180°
2026-05-04 18:27 51.47199 -0.47353 90 ft 0 kts 180°
2026-05-04 18:31 51.47179 -0.47353 93 ft 7 kts 180°
2026-05-04 18:31 51.47131 -0.47352 93 ft 7 kts 180°
2026-05-04 18:31 51.47083 -0.47352 92 ft 7 kts 180°
2026-05-04 18:31 51.47029 -0.47351 90 ft 11 kts 179°
2026-05-04 18:32 51.46953 -0.47350 90 ft 11 kts 179°
2026-05-04 18:32 51.46878 -0.47349 90 ft 11 kts 179°
2026-05-04 18:32 51.46804 -0.47348 94 ft 11 kts 179°
2026-05-04 18:32 51.46728 -0.47347 91 ft 11 kts 179°
2026-05-04 18:33 51.46661 -0.47381 91 ft 11 kts 239°
2026-05-04 18:33 51.46654 -0.47501 90 ft 11 kts 270°
2026-05-04 18:33 51.46655 -0.47625 92 ft 12 kts 270°
2026-05-04 18:33 51.46654 -0.47727 92 ft 2 kts 269°
2026-05-04 18:34 51.46654 -0.47823 90 ft 11 kts 270°
2026-05-04 18:34 51.46653 -0.47948 91 ft 11 kts 269°
2026-05-04 18:34 51.46653 -0.48065 92 ft 7 kts 269°
2026-05-04 18:34 51.46652 -0.48081 92 ft 0 kts 269°
2026-05-04 18:37 51.46652 -0.48092 91 ft 7 kts 269°
2026-05-04 18:37 51.46627 -0.48205 92 ft 10 kts 210°
2026-05-04 18:38 51.46602 -0.48212 91 ft 0 kts 176°
2026-05-04 18:41 51.46552 -0.48208 93 ft 9 kts 177°
2026-05-04 18:41 51.46491 -0.48185 94 ft 9 kts 142°
2026-05-04 18:41 51.46480 -0.48117 92 ft 0 kts 90°
2026-05-04 18:43 51.46480 -0.47889 92 ft 54 kts 90°
2026-05-04 18:43 51.46484 -0.46864 95 ft 127 kts 89°
2026-05-04 18:43 51.46500 -0.45146 180 ft 176 kts 89°
2026-05-04 18:43 51.46523 -0.43112 829 ft 186 kts 88°
2026-05-04 18:44 51.46476 -0.41065 1719 ft 183 kts 103°
2026-05-04 18:44 51.46336 -0.40389 1842 ft 192 kts 115°
2026-05-04 18:44 51.44387 -0.38210 2237 ft 235 kts 173°
2026-05-04 18:44 51.42723 -0.38558 2534 ft 254 kts 204°
2026-05-04 18:45 51.41239 -0.40169 3054 ft 261 kts 220°
2026-05-04 18:45 51.39833 -0.42069 3670 ft 267 kts 220°
2026-05-04 18:45 51.38403 -0.44005 4445 ft 268 kts 220°
2026-05-04 18:45 51.36986 -0.45929 5172 ft 270 kts 220°
2026-05-04 18:46 51.35545 -0.47893 5802 ft 273 kts 220°
2026-05-04 18:46 51.34086 -0.49884 6002 ft 277 kts 220°
2026-05-04 18:46 51.32633 -0.51872 6004 ft 276 kts 220°
2026-05-04 18:46 51.31168 -0.53880 5998 ft 276 kts 221°
2026-05-04 18:47 51.30199 -0.55205 5993 ft 276 kts 220°
2026-05-04 18:47 51.28268 -0.57845 5994 ft 275 kts 221°
2026-05-04 18:47 51.27291 -0.59181 5997 ft 275 kts 220°
2026-05-04 18:47 51.25357 -0.61820 6004 ft 276 kts 220°
2026-05-04 18:48 51.24388 -0.63146 6000 ft 274 kts 222°
2026-05-04 18:48 51.23217 -0.65486 5991 ft 270 kts 246°
2026-05-04 18:48 51.22854 -0.68412 6005 ft 271 kts 275°
2026-05-04 18:48 51.23395 -0.71274 6052 ft 272 kts 304°
2026-05-04 18:49 51.24711 -0.73403 6190 ft 280 kts 328°
2026-05-04 18:49 51.26532 -0.74438 6125 ft 274 kts 354°
2026-05-04 18:49 51.28416 -0.74537 6096 ft 269 kts
2026-05-04 18:49 51.30295 -0.74533 6098 ft 271 kts
2026-05-04 18:50 51.32170 -0.74524 6102 ft 273 kts
2026-05-04 18:50 51.34074 -0.74509 6635 ft 274 kts
2026-05-04 18:50 51.35988 -0.74489 7331 ft 275 kts
2026-05-04 18:50 51.37922 -0.74465 7912 ft 277 kts 359°
2026-05-04 18:51 51.39814 -0.74998 8007 ft 285 kts 336°
2026-05-04 18:51 51.41411 -0.76838 8018 ft 284 kts 309°
2026-05-04 18:51 51.42340 -0.79551 8026 ft 281 kts 289°
2026-05-04 18:51 51.42904 -0.82552 8023 ft 281 kts 286°
2026-05-04 18:52 51.43439 -0.85572 8017 ft 283 kts 286°
2026-05-04 18:52 51.43983 -0.88606 8445 ft 281 kts 289°
2026-05-04 18:52 51.44802 -0.91486 8967 ft 286 kts 299°
2026-05-04 18:52 51.45793 -0.94250 9577 ft 287 kts 300°
2026-05-04 18:53 51.46799 -0.97002 10146 ft 289 kts 300°
2026-05-04 18:53 51.47831 -0.99883 10364 ft 307 kts 299°
2026-05-04 18:53 51.48904 -1.02953 10554 ft 323 kts 299°
2026-05-04 18:53 51.50006 -1.06172 11009 ft 333 kts 298°
2026-05-04 18:54 51.51122 -1.09483 11644 ft 339 kts 298°
2026-05-04 18:54 51.52236 -1.12817 12433 ft 342 kts 298°
2026-05-04 18:54 51.53361 -1.16215 12982 ft 345 kts 297°
2026-05-04 18:54 51.54495 -1.19658 13011 ft 350 kts 297°
2026-05-04 18:55 51.55518 -1.22774 13023 ft 349 kts 297°
2026-05-04 18:55 51.57794 -1.29728 13752 ft 353 kts 297°
2026-05-04 18:55 51.58938 -1.33231 14591 ft 354 kts 297°
2026-05-04 18:56 51.60033 -1.36585 15016 ft 356 kts 297°
2026-05-04 18:56 51.61019 -1.39612 15013 ft 358 kts 297°
2026-05-04 18:56 51.62174 -1.43160 15021 ft 357 kts 297°
2026-05-04 18:56 51.63290 -1.46597 15071 ft 359 kts 297°
2026-05-04 18:57 51.64429 -1.50107 15803 ft 361 kts 297°
2026-05-04 18:57 51.65591 -1.53693 16596 ft 362 kts 297°
2026-05-04 18:57 51.66737 -1.57237 17324 ft 365 kts 297°
2026-05-04 18:57 51.67920 -1.60897 17990 ft 369 kts 297°
2026-05-04 18:58 51.69015 -1.64309 18601 ft 372 kts 295°
2026-05-04 18:58 51.70016 -1.68205 19214 ft 375 kts 287°
2026-05-04 18:58 51.70672 -1.72263 19817 ft 378 kts 279°
2026-05-04 18:58 51.71024 -1.76499 20420 ft 380 kts 275°
2026-05-04 18:59 51.71301 -1.80768 20990 ft 384 kts 275°
2026-05-04 18:59 51.71585 -1.84930 21528 ft 387 kts 275°
2026-05-04 18:59 51.71810 -1.88138 21939 ft 389 kts 275°
2026-05-04 18:59 51.72112 -1.92391 22474 ft 392 kts 275°
2026-05-04 19:00 51.72403 -1.96480 22978 ft 395 kts 275°
2026-05-04 19:00 51.72717 -2.00904 23496 ft 398 kts 275°
2026-05-04 19:00 51.73033 -2.05389 24006 ft 401 kts 275°
2026-05-04 19:00 51.73304 -2.09268 24433 ft 404 kts 275°
2026-05-04 19:01 51.73625 -2.13888 24935 ft 407 kts 275°
2026-05-04 19:01 51.73942 -2.18444 25409 ft 410 kts 275°
2026-05-04 19:01 51.74258 -2.22997 25873 ft 413 kts 275°
2026-05-04 19:01 51.74577 -2.27617 26330 ft 416 kts 275°
2026-05-04 19:02 51.74895 -2.32248 26786 ft 419 kts 275°
2026-05-04 19:02 51.75046 -2.34459 26999 ft 421 kts 275°
2026-05-04 19:02 51.75368 -2.39170 27432 ft 424 kts 275°
2026-05-04 19:02 51.75690 -2.43921 27871 ft 427 kts 275°
2026-05-04 19:03 51.76014 -2.48711 28300 ft 430 kts 275°
2026-05-04 19:03 51.76303 -2.53032 28669 ft 433 kts 275°
2026-05-04 19:03 51.76564 -2.57071 29021 ft 435 kts 275°
2026-05-04 19:03 51.76866 -2.61954 29426 ft 438 kts 275°
2026-05-04 19:04 51.77174 -2.66840 29804 ft 441 kts 275°
2026-05-04 19:04 51.77492 -2.71789 30180 ft 444 kts 275°
2026-05-04 19:04 51.77809 -2.76706 30544 ft 447 kts 275°
2026-05-04 19:04 51.78132 -2.81747 30892 ft 450 kts 275°
2026-05-04 19:05 51.78454 -2.86794 31229 ft 453 kts 275°
2026-05-04 19:05 51.78775 -2.91881 31557 ft 456 kts 275°
2026-05-04 19:05 51.79096 -2.97002 31879 ft 459 kts 275°
2026-05-04 19:05 51.79413 -3.02097 32190 ft 461 kts 275°
2026-05-04 19:06 51.79720 -3.07069 32494 ft 464 kts 275°
2026-05-04 19:06 51.80039 -3.12280 32786 ft 467 kts 275°
2026-05-04 19:06 51.80352 -3.17454 33070 ft 469 kts 275°
2026-05-04 19:06 51.80669 -3.22713 33337 ft 472 kts 275°
2026-05-04 19:07 51.80985 -3.27997 33593 ft 474 kts 275°
2026-05-04 19:07 51.81301 -3.33324 33851 ft 476 kts 275°
2026-05-04 19:07 51.81616 -3.38675 34141 ft 477 kts 275°
2026-05-04 19:07 51.81929 -3.44022 34484 ft 476 kts 275°
2026-05-04 19:08 51.82237 -3.49284 34818 ft 475 kts 275°
2026-05-04 19:08 51.82581 -3.54586 35171 ft 475 kts 278°
2026-05-04 19:08 51.83181 -3.59832 35493 ft 474 kts 282°
2026-05-04 19:08 51.83873 -3.65075 35803 ft 474 kts 282°
2026-05-04 19:09 51.84574 -3.70281 36103 ft 474 kts 282°
2026-05-04 19:09 51.85265 -3.75431 36388 ft 473 kts 282°
2026-05-04 19:09 51.85951 -3.80629 36638 ft 474 kts 282°
2026-05-04 19:09 51.86630 -3.85861 36887 ft 474 kts 282°
2026-05-04 19:10 51.87306 -3.91119 37198 ft 473 kts 282°
2026-05-04 19:10 51.87959 -3.96252 37504 ft 471 kts 282°
2026-05-04 19:10 51.88618 -4.01461 37774 ft 470 kts 282°
2026-05-04 19:10 51.89275 -4.06683 37928 ft 472 kts 282°
2026-05-04 19:11 51.90589 -4.17159 38014 ft 476 kts 282°
2026-05-04 19:11 51.91881 -4.27530 38012 ft 467 kts 281°
2026-05-04 19:12 51.93783 -4.42963 38027 ft 464 kts 281°
2026-05-04 19:13 51.95034 -4.53205 38029 ft 463 kts 281°
2026-05-04 19:13 51.96275 -4.63444 38032 ft 464 kts 281°
2026-05-04 19:14 51.97516 -4.73768 38032 ft 465 kts 281°
2026-05-04 19:14 51.98743 -4.84045 38028 ft 467 kts 281°
2026-05-04 19:15 51.99972 -4.94427 38029 ft 469 kts 281°
2026-05-04 19:15 52.01190 -5.04796 38031 ft 470 kts 281°
2026-05-04 19:16 52.02410 -5.15258 38032 ft 470 kts 281°
2026-05-04 19:16 52.04023 -5.25461 38033 ft 465 kts 289°
2026-05-04 19:17 52.06082 -5.35353 38029 ft 461 kts 289°
2026-05-04 19:17 52.08122 -5.45247 38032 ft 459 kts 289°
2026-05-04 19:18 52.10106 -5.55076 38038 ft 459 kts 289°
2026-05-04 19:18 52.12082 -5.64971 38049 ft 460 kts 288°
2026-05-04 19:19 52.14049 -5.74854 38050 ft 462 kts 288°
2026-05-04 19:19 52.16006 -5.84879 38056 ft 464 kts 285°
2026-05-04 19:20 52.17427 -5.95156 38072 ft 466 kts 282°
2026-05-04 19:20 52.18738 -6.05479 38071 ft 467 kts 282°
2026-05-04 19:21 52.20064 -6.15876 38081 ft 468 kts 282°
2026-05-04 19:21 52.21395 -6.26214 38082 ft 468 kts 282°
2026-05-04 19:22 52.22730 -6.36607 38087 ft 468 kts 282°
2026-05-04 19:22 52.24055 -6.46992 38090 ft 466 kts 282°
2026-05-04 19:23 52.25365 -6.57327 38096 ft 465 kts 282°
2026-05-04 19:23 52.26660 -6.67638 38097 ft 464 kts 282°
2026-05-04 19:24 52.27942 -6.77940 38102 ft 463 kts 282°
2026-05-04 19:24 52.29221 -6.88270 38101 ft 464 kts 282°
2026-05-04 19:25 52.30490 -6.98606 38102 ft 464 kts 282°
2026-05-04 19:25 52.31749 -7.08934 38102 ft 466 kts 282°
2026-05-04 19:26 52.33007 -7.19345 38103 ft 467 kts 282°
2026-05-04 19:26 52.34254 -7.29739 38104 ft 468 kts 282°
2026-05-04 19:27 52.35500 -7.40215 38101 ft 468 kts 282°
2026-05-04 19:27 52.36732 -7.50635 38099 ft 468 kts 282°
2026-05-04 19:28 52.37962 -7.61151 38100 ft 468 kts 282°
2026-05-04 19:28 52.39183 -7.71654 38101 ft 469 kts 281°
2026-05-04 19:29 52.40383 -7.82083 38104 ft 468 kts 281°
2026-05-04 19:29 52.41583 -7.92592 38109 ft 469 kts 281°
2026-05-04 19:30 52.42770 -8.03074 38112 ft 468 kts 281°
2026-05-04 19:30 52.43951 -8.13572 38111 ft 468 kts 281°
2026-05-04 19:31 52.45120 -8.24051 38110 ft 468 kts 281°
2026-05-04 19:31 52.46277 -8.34531 38111 ft 468 kts 281°
2026-05-04 19:32 52.47428 -8.45052 38116 ft 467 kts 281°
2026-05-04 19:32 52.48562 -8.55505 38122 ft 467 kts 281°
2026-05-04 19:33 52.49696 -8.66030 38124 ft 466 kts 281°
2026-05-04 19:33 52.50812 -8.76468 38129 ft 465 kts 281°
2026-05-04 19:34 52.51918 -8.86937 38128 ft 464 kts 281°
2026-05-04 19:34 52.53008 -8.97335 38130 ft 463 kts 281°
2026-05-04 19:35 52.54086 -9.07723 38129 ft 463 kts 280°
2026-05-04 19:35 52.54982 -9.16412 38130 ft 463 kts 280°
2026-05-04 19:36 52.56049 -9.26857 38129 ft 462 kts 280°
2026-05-04 19:36 52.57106 -9.37283 38129 ft 462 kts 280°
2026-05-04 19:37 52.58151 -9.47684 38129 ft 462 kts 280°
2026-05-04 19:37 52.59189 -9.58125 38129 ft 462 kts 280°
2026-05-04 19:38 52.60214 -9.68534 38127 ft 462 kts 280°
2026-05-04 19:38 52.61235 -9.78997 38129 ft 462 kts 280°
2026-05-04 19:39 52.62245 -9.89434 38130 ft 463 kts 280°
2026-05-04 19:39 52.63245 -9.99875 38129 ft 463 kts 280°
2026-05-04 19:40 52.64235 -10.10334 38131 ft 463 kts 280°
2026-05-04 19:40 52.65222 -10.20848 38128 ft 463 kts 279°
2026-05-04 19:41 52.66195 -10.31309 38130 ft 462 kts 279°
2026-05-04 19:41 52.67159 -10.41800 38129 ft 461 kts 279°
2026-05-04 19:42 52.68109 -10.52227 38128 ft 460 kts 279°
2026-05-04 19:42 52.69051 -10.62653 38129 ft 459 kts 279°
2026-05-04 19:43 52.69978 -10.73046 38130 ft 459 kts 279°
2026-05-04 19:43 52.70893 -10.83405 38128 ft 458 kts 279°
2026-05-04 19:44 52.71805 -10.93824 38129 ft 458 kts 279°
2026-05-04 19:44 52.72704 -11.04215 38128 ft 457 kts 279°
2026-05-04 19:45 52.73591 -11.14556 38119 ft 457 kts 279°
2026-05-04 19:45 52.74474 -11.24972 38121 ft 456 kts 278°
2026-05-04 19:46 52.75344 -11.35346 38119 ft 456 kts 278°
2026-05-04 19:46 52.76199 -11.45673 38121 ft 456 kts 278°
2026-05-04 19:47 52.77049 -11.56036 38120 ft 456 kts 278°
2026-05-04 19:47 52.77895 -11.66458 38121 ft 456 kts 278°
2026-05-04 19:48 52.78723 -11.76777 38120 ft 456 kts 278°
2026-05-04 19:48 52.79548 -11.87172 38121 ft 456 kts 278°
2026-05-04 19:49 52.80365 -11.97581 38120 ft 456 kts 278°
2026-05-04 19:49 52.81165 -12.07938 38121 ft 456 kts 278°
2026-05-04 19:50 52.81961 -12.18336 38119 ft 455 kts 278°
2026-05-04 19:50 52.82747 -12.28705 38121 ft 456 kts 278°
2026-05-04 19:51 52.83528 -12.39117 38118 ft 455 kts 278°
2026-05-04 19:51 52.84296 -12.49494 38119 ft 454 kts 277°
2026-05-04 19:52 52.85050 -12.59839 38119 ft 454 kts 277°
2026-05-04 19:52 52.85796 -12.70202 38119 ft 453 kts 277°
2026-05-04 19:53 52.86531 -12.80506 38119 ft 453 kts 277°
2026-05-04 19:53 52.87260 -12.90877 38122 ft 452 kts 277°
2026-05-04 19:54 52.87977 -13.01195 38121 ft 453 kts 277°
2026-05-04 19:54 52.88688 -13.11556 38120 ft 452 kts 277°
2026-05-04 19:55 52.89389 -13.21921 38120 ft 452 kts 277°
2026-05-04 19:55 52.90078 -13.32240 38120 ft 452 kts 277°
2026-05-04 19:56 52.90765 -13.42655 38119 ft 452 kts 277°
2026-05-04 19:56 52.91434 -13.52960 38121 ft 452 kts 276°
2026-05-04 19:57 52.92096 -13.63312 38119 ft 453 kts 276°
2026-05-04 19:57 52.92755 -13.73738 38120 ft 452 kts 276°
2026-05-04 19:58 52.93402 -13.84105 38120 ft 452 kts 276°
2026-05-04 19:58 52.94036 -13.94422 38119 ft 452 kts 276°
2026-05-04 19:59 52.94664 -14.04798 38122 ft 452 kts 276°
2026-05-04 19:59 52.95281 -14.15129 38118 ft 452 kts 276°
2026-05-04 20:00 52.95890 -14.25482 38121 ft 451 kts 276°
2026-05-04 20:00 52.96491 -14.35876 38119 ft 451 kts 276°
2026-05-04 20:01 52.97079 -14.46232 38120 ft 451 kts 276°
2026-05-04 20:01 52.97662 -14.56575 38120 ft 451 kts 276°
2026-05-04 20:02 52.98231 -14.66890 38121 ft 450 kts 276°
2026-05-04 20:02 52.98793 -14.77228 38121 ft 450 kts 276°
2026-05-04 20:03 52.99349 -14.87602 38121 ft 450 kts 275°
2026-05-04 20:03 52.99894 -14.97924 38121 ft 450 kts 276°
2026-05-04 20:04 53.00922 -15.08169 38123 ft 449 kts 282°
2026-05-04 20:04 53.02190 -15.18341 38119 ft 449 kts 282°
2026-05-04 20:05 53.03437 -15.28492 38121 ft 449 kts 282°
2026-05-04 20:05 53.04660 -15.38670 38126 ft 449 kts 281°
2026-05-04 20:06 53.05867 -15.48860 38130 ft 449 kts 281°
2026-05-04 20:06 53.07067 -15.59090 38131 ft 449 kts 281°
2026-05-04 20:07 53.08251 -15.69262 38129 ft 450 kts 281°
2026-05-04 20:07 53.09437 -15.79526 38130 ft 450 kts 281°
2026-05-04 20:08 53.10610 -15.89741 38129 ft 450 kts 281°
2026-05-04 20:08 53.11771 -15.99959 38130 ft 450 kts 281°
2026-05-04 20:09 53.12925 -16.10196 38129 ft 450 kts 281°
2026-05-04 20:09 53.14068 -16.20423 38130 ft 450 kts 281°
2026-05-04 20:10 53.15205 -16.30664 38128 ft 449 kts 281°
2026-05-04 20:10 53.16330 -16.40881 38133 ft 449 kts 281°
2026-05-04 20:11 53.17443 -16.51085 38134 ft 449 kts 281°
2026-05-04 20:11 53.18558 -16.61366 38134 ft 449 kts 281°
2026-05-04 20:12 53.19650 -16.71548 38134 ft 448 kts 280°
2026-05-04 20:12 53.20741 -16.81813 38134 ft 448 kts 280°
2026-05-04 20:13 53.21820 -16.92035 38145 ft 448 kts 280°
2026-05-04 20:13 53.22898 -17.02339 38144 ft 449 kts 280°
2026-05-04 20:14 53.23958 -17.12566 38136 ft 449 kts 280°
2026-05-04 20:14 53.25012 -17.22823 38132 ft 449 kts 280°
2026-05-04 20:15 53.26059 -17.33123 38140 ft 449 kts 280°
2026-05-04 20:15 53.27099 -17.43434 38142 ft 449 kts 280°
2026-05-04 20:16 53.28127 -17.53692 38150 ft 449 kts 279°
2026-05-04 20:16 53.29147 -17.63979 38141 ft 449 kts 279°
2026-05-04 20:17 53.30165 -17.74329 38132 ft 449 kts 279°
2026-05-04 20:17 53.31161 -17.84575 38134 ft 449 kts 279°
2026-05-04 20:18 53.32153 -17.94865 38144 ft 449 kts 279°
2026-05-04 20:18 53.33141 -18.05205 38147 ft 448 kts 279°
2026-05-04 20:19 53.34110 -18.15468 38144 ft 448 kts 279°
2026-05-04 20:19 53.35080 -18.25792 38153 ft 447 kts 279°
2026-05-04 20:20 53.36031 -18.36039 38149 ft 447 kts 279°
2026-05-04 20:20 53.36977 -18.46336 38152 ft 447 kts 279°
2026-05-04 20:21 53.37917 -18.56674 38152 ft 447 kts 279°
2026-05-04 20:21 53.39301 -18.72088 38143 ft 447 kts 279°
2026-05-04 20:22 53.40062 -18.80657 38156 ft 447 kts 279°
2026-05-04 20:22 53.40972 -18.90985 38143 ft 448 kts 278°
2026-05-04 20:23 53.41875 -19.01362 38149 ft 448 kts 278°
2026-05-04 20:23 53.42762 -19.11659 38149 ft 448 kts 278°
2026-05-04 20:24 53.43649 -19.22042 38152 ft 448 kts 278°
2026-05-04 20:24 53.44519 -19.32369 38144 ft 448 kts 278°
2026-05-04 20:25 53.45381 -19.42697 38152 ft 448 kts 278°
2026-05-04 20:25 53.46239 -19.53060 38143 ft 448 kts 278°
2026-05-04 20:26 53.47080 -19.63357 38142 ft 448 kts 278°
2026-05-04 20:26 53.47917 -19.73720 38154 ft 447 kts 278°
2026-05-04 20:27 53.48747 -19.84111 38155 ft 447 kts 278°
2026-05-04 20:27 53.49567 -19.94454 38153 ft 447 kts 278°
2026-05-04 20:28 53.50404 -20.04802 38156 ft 447 kts 278°
2026-05-04 20:28 53.51348 -20.15079 38158 ft 447 kts 279°
2026-05-04 20:29 53.52312 -20.25420 38152 ft 447 kts 279°
2026-05-04 20:29 53.53252 -20.35711 38154 ft 447 kts 279°
2026-05-04 20:30 53.54175 -20.46042 38168 ft 447 kts 279°
2026-05-04 20:30 53.55089 -20.56397 38174 ft 447 kts 278°
2026-05-04 20:31 53.55989 -20.66706 38184 ft 447 kts 278°
2026-05-04 20:31 53.56882 -20.77066 38190 ft 447 kts 278°
2026-05-04 20:32 53.57770 -20.87459 38199 ft 447 kts 278°
2026-05-04 20:32 53.58644 -20.97776 38209 ft 447 kts 278°
2026-05-04 20:33 53.59508 -21.08101 38211 ft 447 kts 278°
2026-05-04 20:33 53.60366 -21.18456 38223 ft 447 kts 278°
2026-05-04 20:34 53.61219 -21.28861 38216 ft 448 kts 278°
2026-05-04 20:34 53.62060 -21.39256 38225 ft 448 kts 278°
2026-05-04 20:35 53.62891 -21.49616 38217 ft 448 kts 278°
2026-05-04 20:35 53.63718 -21.60045 38216 ft 447 kts 278°
2026-05-04 20:36 53.64532 -21.70441 38222 ft 447 kts 278°
2026-05-04 20:36 53.65336 -21.80815 38225 ft 447 kts 278°
2026-05-04 20:37 53.66132 -21.91227 38224 ft 446 kts 278°
2026-05-04 20:37 53.66915 -22.01565 38216 ft 446 kts 277°
2026-05-04 20:38 53.67690 -22.11949 38223 ft 446 kts 277°
2026-05-04 20:38 53.68457 -22.22317 38218 ft 446 kts 277°
2026-05-04 20:39 53.69219 -22.32757 38223 ft 446 kts 277°
2026-05-04 20:39 53.69966 -22.43115 38229 ft 446 kts 277°
2026-05-04 20:40 53.70703 -22.53462 38234 ft 445 kts 277°
2026-05-04 20:40 53.71431 -22.63828 38236 ft 446 kts 277°
2026-05-04 20:41 53.72155 -22.74256 38233 ft 446 kts 277°
2026-05-04 20:41 53.72871 -22.84707 38236 ft 447 kts 277°
2026-05-04 20:42 53.73570 -22.95051 38236 ft 447 kts 277°
2026-05-04 20:42 53.74271 -23.05542 38224 ft 447 kts 277°
2026-05-04 20:43 53.74956 -23.15943 38232 ft 447 kts 277°
2026-05-04 20:43 53.75633 -23.26367 38224 ft 447 kts 276°
2026-05-04 20:44 53.76302 -23.36792 38225 ft 446 kts 276°
2026-05-04 20:44 53.76964 -23.47271 38227 ft 446 kts 276°
2026-05-04 20:45 53.77613 -23.57691 38236 ft 446 kts 276°
2026-05-04 20:45 53.78253 -23.68111 38239 ft 446 kts 276°
2026-05-04 20:46 53.78881 -23.78503 38244 ft 446 kts 276°
2026-05-04 20:46 53.79506 -23.88973 38246 ft 447 kts 276°
2026-05-04 20:47 53.80119 -23.99381 38242 ft 446 kts 276°
2026-05-04 20:47 53.80726 -24.09875 38250 ft 446 kts 276°
2026-05-04 20:48 53.81318 -24.20298 38257 ft 446 kts 276°
2026-05-04 20:48 53.81906 -24.30741 38265 ft 446 kts 276°
2026-05-04 20:49 53.82485 -24.41218 38269 ft 446 kts 276°
2026-05-04 20:49 53.83049 -24.51654 38265 ft 446 kts 275°
2026-05-04 20:50 53.83608 -24.62082 38266 ft 446 kts 275°
2026-05-04 20:50 53.84159 -24.72564 38270 ft 447 kts 275°
2026-05-04 20:51 53.84697 -24.82998 38266 ft 446 kts 275°
2026-05-04 20:51 53.85231 -24.93503 38269 ft 447 kts 275°
2026-05-04 20:52 53.85754 -25.03957 38268 ft 447 kts 275°
2026-05-04 20:52 53.86271 -25.14493 38268 ft 447 kts 275°
2026-05-04 20:53 53.86774 -25.24959 38271 ft 446 kts 275°
2026-05-04 20:53 53.87269 -25.35432 38275 ft 446 kts 275°
2026-05-04 20:54 53.87756 -25.45930 38279 ft 446 kts 275°
2026-05-04 20:54 53.88232 -25.56377 38274 ft 447 kts 275°
2026-05-04 20:55 53.88704 -25.66927 38279 ft 447 kts 275°
2026-05-04 20:55 53.89162 -25.77407 38279 ft 447 kts 274°
2026-05-04 20:56 53.89612 -25.87952 38287 ft 447 kts 274°
2026-05-04 20:56 53.90054 -25.98492 38298 ft 448 kts 274°
2026-05-04 20:57 53.90487 -26.08979 38304 ft 447 kts 274°
2026-05-04 20:57 53.90910 -26.19486 38312 ft 448 kts 274°
2026-05-04 20:58 53.91326 -26.30090 38321 ft 448 kts 274°
2026-05-04 20:58 53.91729 -26.40593 38328 ft 447 kts 274°
2026-05-04 20:59 53.92124 -26.51131 38338 ft 447 kts 274°
2026-05-04 20:59 53.92510 -26.61661 38345 ft 447 kts 274°
2026-05-04 21:00 53.92887 -26.72160 38352 ft 447 kts 274°
2026-05-04 21:00 53.93257 -26.82749 38358 ft 447 kts 274°
2026-05-04 21:01 53.93615 -26.93272 38360 ft 448 kts 274°
2026-05-04 21:01 53.93964 -27.03806 38359 ft 448 kts 273°
2026-05-04 21:02 53.94305 -27.14346 38359 ft 448 kts 273°
2026-05-04 21:02 53.94636 -27.24922 38358 ft 448 kts 273°
2026-05-04 21:03 53.94959 -27.35510 38359 ft 448 kts 273°
2026-05-04 21:03 53.95271 -27.46052 38360 ft 449 kts 273°
2026-05-04 21:04 53.95576 -27.56654 38359 ft 449 kts 273°
2026-05-04 21:04 53.95871 -27.67222 38358 ft 450 kts 273°
2026-05-04 21:05 53.96155 -27.77834 38363 ft 451 kts 272°
2026-05-04 21:05 53.96435 -27.88488 38369 ft 450 kts 272°
2026-05-04 21:06 53.96704 -27.99153 38368 ft 450 kts 272°
2026-05-04 21:06 53.96962 -28.09761 38368 ft 450 kts 272°
2026-05-04 21:07 53.97170 -28.18609 38367 ft 450 kts 272°
2026-05-04 21:07 53.97450 -28.30971 38369 ft 450 kts 272°
2026-05-04 21:08 53.97642 -28.39827 38367 ft 450 kts 272°
2026-05-04 21:08 53.97862 -28.50437 38370 ft 450 kts 272°
2026-05-04 21:09 53.98076 -28.61061 38368 ft 450 kts 272°
2026-05-04 21:09 53.98281 -28.71672 38367 ft 449 kts 272°
2026-05-04 21:10 53.98476 -28.82309 38368 ft 449 kts 272°
2026-05-04 21:10 53.98659 -28.92886 38367 ft 449 kts 272°
2026-05-04 21:11 53.98834 -29.03515 38368 ft 449 kts 272°
2026-05-04 21:11 53.99000 -29.14121 38367 ft 449 kts 272°
2026-05-04 21:12 53.99155 -29.24679 38369 ft 449 kts 272°
2026-05-04 21:12 53.99303 -29.35297 38368 ft 449 kts 271°
2026-05-04 21:13 53.99441 -29.45914 38367 ft 449 kts 271°
2026-05-04 21:13 53.99569 -29.56485 38368 ft 449 kts 271°
2026-05-04 21:14 53.99688 -29.67109 38369 ft 449 kts 271°
2026-05-04 21:14 53.99798 -29.77694 38367 ft 449 kts 271°
2026-05-04 21:15 53.99901 -29.88381 38369 ft 450 kts 271°
2026-05-04 21:15 53.99988 -29.99010 38368 ft 450 kts 270°
2026-05-04 21:16 53.99547 -30.09621 38376 ft 451 kts 264°
2026-05-04 21:16 53.98883 -30.20187 38368 ft 451 kts 264°
2026-05-04 21:17 53.98223 -30.30793 38368 ft 451 kts 264°
2026-05-04 21:17 53.97577 -30.41403 38370 ft 451 kts 265°
2026-05-04 21:18 53.96933 -30.52047 38366 ft 451 kts 265°
2026-05-04 21:18 53.96287 -30.62609 38360 ft 452 kts 264°
2026-05-04 21:19 53.95623 -30.73236 38357 ft 451 kts 264°
2026-05-04 21:19 53.94957 -30.83817 38360 ft 451 kts 264°
2026-05-04 21:20 53.94282 -30.94360 38358 ft 451 kts 264°
2026-05-04 21:20 53.93589 -31.04976 38361 ft 450 kts 264°
2026-05-04 21:21 53.92892 -31.15547 38358 ft 450 kts 264°
2026-05-04 21:21 53.92191 -31.26085 38353 ft 450 kts 264°
2026-05-04 21:22 53.91479 -31.36589 38346 ft 450 kts 264°
2026-05-04 21:22 53.90755 -31.47138 38336 ft 450 kts 264°
2026-05-04 21:23 53.90021 -31.57708 38327 ft 450 kts 264°
2026-05-04 21:23 53.89279 -31.68201 38318 ft 450 kts 264°
2026-05-04 21:24 53.88526 -31.78782 38310 ft 450 kts 264°
2026-05-04 21:24 53.87768 -31.89271 38300 ft 450 kts 264°
2026-05-04 21:25 53.87000 -31.99800 38293 ft 450 kts 264°
2026-05-04 21:25 53.86224 -32.10288 38282 ft 450 kts 264°
2026-05-04 21:26 53.85434 -32.20828 38275 ft 449 kts 264°
2026-05-04 21:26 53.84638 -32.31312 38266 ft 449 kts 264°
2026-05-04 21:27 53.83832 -32.41831 38263 ft 450 kts 264°
2026-05-04 21:27 53.83021 -32.52306 38254 ft 450 kts 263°
2026-05-04 21:28 53.82199 -32.62761 38245 ft 449 kts 263°
2026-05-04 21:28 53.81363 -32.73278 38233 ft 449 kts 263°
2026-05-04 21:29 53.80523 -32.83738 38228 ft 449 kts 263°
2026-05-04 21:29 53.79676 -32.94166 38218 ft 449 kts 263°
2026-05-04 21:30 53.78815 -33.04625 38206 ft 448 kts 263°
2026-05-04 21:30 53.77952 -33.15040 38200 ft 448 kts 263°
2026-05-04 21:31 53.76632 -33.30722 38193 ft 448 kts 263°
2026-05-04 21:32 53.75748 -33.41096 38194 ft 447 kts 263°
2026-05-04 21:32 53.74852 -33.51465 38193 ft 447 kts 263°
2026-05-04 21:33 53.73942 -33.61906 38193 ft 447 kts 263°
2026-05-04 21:33 53.73031 -33.72279 38189 ft 447 kts 263°
2026-05-04 21:34 53.72109 -33.82661 38183 ft 448 kts 263°
2026-05-04 21:34 53.71174 -33.93073 38186 ft 448 kts 263°
2026-05-04 21:35 53.70232 -34.03448 38185 ft 448 kts 263°
2026-05-04 21:35 53.69282 -34.13806 38184 ft 448 kts 263°
2026-05-04 21:36 53.68327 -34.24147 38184 ft 447 kts 263°
2026-05-04 21:36 53.67354 -34.34561 38178 ft 447 kts 263°
2026-05-04 21:37 53.66377 -34.44912 38175 ft 447 kts 263°
2026-05-04 21:37 53.65393 -34.55235 38175 ft 447 kts 263°
2026-05-04 21:38 53.64398 -34.65592 38174 ft 447 kts 263°
2026-05-04 21:38 53.63396 -34.75910 38176 ft 446 kts 263°
2026-05-04 21:39 53.62388 -34.86207 38172 ft 446 kts 263°
2026-05-04 21:39 53.61366 -34.96517 38170 ft 445 kts 263°
2026-05-04 21:40 53.60345 -35.06769 38169 ft 444 kts 263°
2026-05-04 21:40 53.59320 -35.16970 38163 ft 443 kts 263°
2026-05-04 21:41 53.58280 -35.27192 38163 ft 442 kts 263°
2026-05-04 21:41 53.57235 -35.37403 38162 ft 441 kts 263°
2026-05-04 21:42 53.56186 -35.47532 38169 ft 441 kts 263°
2026-05-04 21:42 53.55126 -35.57695 38163 ft 441 kts 263°
2026-05-04 21:43 53.54056 -35.67885 38162 ft 441 kts 263°
2026-05-04 21:43 53.52981 -35.78017 38152 ft 441 kts 262°
2026-05-04 21:44 53.51901 -35.88122 38154 ft 441 kts 262°
2026-05-04 21:44 53.50803 -35.98303 38161 ft 441 kts 262°
2026-05-04 21:45 53.49698 -36.08458 38159 ft 441 kts 262°
2026-05-04 21:45 53.48588 -36.18570 38149 ft 442 kts 262°
2026-05-04 21:46 53.47471 -36.28680 38141 ft 443 kts 262°
2026-05-04 21:46 53.46334 -36.38857 38129 ft 442 kts 262°
2026-05-04 21:47 53.45192 -36.49020 38123 ft 442 kts 262°
2026-05-04 21:47 53.44053 -36.59085 38116 ft 441 kts 262°
2026-05-04 21:48 53.42902 -36.69163 38102 ft 440 kts 262°
2026-05-04 21:48 53.41742 -36.79240 38096 ft 438 kts 262°
2026-05-04 21:49 53.40581 -36.89244 38081 ft 436 kts 262°
2026-05-04 21:49 53.39419 -36.99184 38076 ft 434 kts 262°
2026-05-04 21:50 53.38259 -37.09041 38071 ft 433 kts 262°
2026-05-04 21:50 53.37081 -37.18967 38074 ft 432 kts 262°
2026-05-04 21:51 53.35905 -37.28791 38081 ft 431 kts 262°
2026-05-04 21:51 53.34719 -37.38643 38095 ft 430 kts 262°
2026-05-04 21:52 53.33533 -37.48415 38100 ft 430 kts 262°
2026-05-04 21:52 53.32334 -37.58230 38101 ft 430 kts 262°
2026-05-04 21:53 53.31135 -37.67952 38095 ft 430 kts 262°
2026-05-04 21:53 53.29919 -37.77764 38091 ft 429 kts 261°
2026-05-04 21:54 53.28701 -37.87528 38097 ft 430 kts 261°
2026-05-04 21:54 53.27678 -37.95670 38096 ft 430 kts 261°
2026-05-04 21:55 53.26233 -38.07076 38093 ft 431 kts 261°
2026-05-04 21:55 53.25195 -38.15218 38090 ft 430 kts 261°
2026-05-04 21:56 53.23937 -38.25013 38082 ft 430 kts 261°
2026-05-04 21:56 53.22681 -38.34743 38083 ft 430 kts 261°
2026-05-04 21:57 53.21410 -38.44509 38081 ft 429 kts 261°
2026-05-04 21:57 53.20132 -38.54244 38080 ft 429 kts 261°
2026-05-04 21:58 53.18856 -38.63937 38091 ft 429 kts 260°
2026-05-04 21:58 53.17566 -38.73659 38082 ft 429 kts 260°
2026-05-04 21:59 53.16272 -38.83337 38073 ft 429 kts 260°
2026-05-04 21:59 53.14962 -38.93073 38075 ft 429 kts 260°
2026-05-04 22:00 53.13646 -39.02787 38074 ft 429 kts 259°
2026-05-04 22:00 53.12325 -39.12474 38074 ft 429 kts 259°
2026-05-04 22:01 53.11002 -39.22117 38072 ft 429 kts 259°
2026-05-04 22:01 53.09662 -39.31819 38065 ft 429 kts 259°
2026-05-04 22:02 53.08320 -39.41469 38063 ft 429 kts 259°
2026-05-04 22:02 53.06974 -39.51088 38066 ft 429 kts 259°
2026-05-04 22:03 53.05608 -39.60786 38064 ft 429 kts 259°
2026-05-04 22:03 53.04239 -39.70445 38063 ft 429 kts 259°
2026-05-04 22:04 53.02869 -39.80066 38056 ft 429 kts 259°
2026-05-04 22:04 53.01491 -39.89675 38056 ft 429 kts 258°
2026-05-04 22:05 53.00217 -39.99329 38055 ft 427 kts 263°
2026-05-04 22:05 52.99876 -40.09168 38058 ft 425 kts 270°
2026-05-04 22:06 52.99821 -40.18969 38051 ft 425 kts 270°
2026-05-04 22:06 52.99737 -40.28736 38045 ft 425 kts 270°
2026-05-04 22:07 52.99636 -40.38546 38046 ft 424 kts 269°
2026-05-04 22:07 52.99524 -40.48373 38047 ft 424 kts 269°
2026-05-04 22:08 52.99407 -40.58144 38045 ft 424 kts 269°
2026-05-04 22:08 52.99280 -40.67895 38044 ft 424 kts 269°
2026-05-04 22:09 52.99145 -40.77726 38039 ft 424 kts 269°
2026-05-04 22:09 52.99002 -40.87502 38037 ft 424 kts 269°
2026-05-04 22:10 52.98853 -40.97300 38037 ft 424 kts 269°
2026-05-04 22:10 52.98694 -41.07060 38038 ft 424 kts 268°
2026-05-04 22:11 52.98528 -41.16798 38040 ft 424 kts 268°
2026-05-04 22:11 52.98354 -41.26596 38047 ft 424 kts 268°
2026-05-04 22:12 52.98173 -41.36336 38043 ft 424 kts 268°
2026-05-04 22:12 52.97981 -41.46156 38037 ft 424 kts 268°
2026-05-04 22:13 52.97785 -41.55876 38037 ft 424 kts 268°
2026-05-04 22:13 52.97577 -41.65668 38036 ft 424 kts 267°
2026-05-04 22:14 52.97363 -41.75409 38037 ft 423 kts 267°
2026-05-04 22:14 52.97139 -41.85197 38035 ft 423 kts 267°
2026-05-04 22:15 52.96910 -41.94923 38032 ft 423 kts 267°
2026-05-04 22:15 52.96672 -42.04665 38030 ft 422 kts 267°
2026-05-04 22:16 52.96426 -42.14419 38027 ft 422 kts 266°
2026-05-04 22:16 52.96173 -42.24124 38028 ft 422 kts 266°
2026-05-04 22:17 52.95911 -42.33866 38022 ft 422 kts 266°
2026-05-04 22:17 52.95643 -42.43576 38018 ft 422 kts 266°
2026-05-04 22:18 52.95365 -42.53292 38018 ft 422 kts 266°
2026-05-04 22:18 52.95080 -42.63012 38021 ft 423 kts 265°
2026-05-04 22:19 52.94787 -42.72737 38019 ft 423 kts 265°
2026-05-04 22:19 52.94485 -42.82441 38013 ft 423 kts 265°
2026-05-04 22:20 52.94174 -42.92244 38009 ft 424 kts 265°
2026-05-04 22:20 52.93857 -43.01977 38010 ft 424 kts 265°
2026-05-04 22:21 52.93530 -43.11771 38009 ft 425 kts 265°
2026-05-04 22:21 52.93195 -43.21560 38008 ft 425 kts 265°
2026-05-04 22:22 52.92852 -43.31326 38003 ft 426 kts 265°
2026-05-04 22:22 52.92499 -43.41137 37999 ft 426 kts 264°
2026-05-04 22:23 52.92140 -43.50905 38000 ft 426 kts 264°
2026-05-04 22:23 52.91771 -43.60730 38000 ft 426 kts 264°
2026-05-04 22:24 52.91396 -43.70504 37997 ft 427 kts 264°
2026-05-04 22:24 52.91010 -43.80337 37990 ft 427 kts 264°
2026-05-04 22:25 52.90619 -43.90119 37991 ft 427 kts 264°
2026-05-04 22:25 52.90215 -43.99963 37991 ft 427 kts 264°
2026-05-04 22:26 52.89806 -44.09737 37982 ft 428 kts 263°
2026-05-04 22:26 52.89386 -44.19598 37983 ft 428 kts 263°
2026-05-04 22:27 52.88962 -44.29379 37983 ft 428 kts 263°
2026-05-04 22:27 52.88525 -44.39236 37982 ft 429 kts 263°
2026-05-04 22:28 52.88083 -44.49084 37980 ft 430 kts 263°
2026-05-04 22:28 52.87629 -44.58976 37977 ft 430 kts 263°
2026-05-04 22:29 52.87169 -44.68815 37977 ft 430 kts 263°
2026-05-04 22:29 52.86699 -44.78713 37977 ft 431 kts 262°
2026-05-04 22:30 52.86221 -44.88580 37963 ft 431 kts 262°
2026-05-04 22:30 52.85729 -44.98539 37954 ft 432 kts 262°
2026-05-04 22:31 52.85233 -45.08446 37963 ft 433 kts 262°
2026-05-04 22:31 52.84730 -45.18334 37964 ft 433 kts 262°
2026-05-04 22:32 52.84216 -45.28217 37950 ft 433 kts 262°
2026-05-04 22:32 52.83693 -45.38187 37951 ft 434 kts 262°
2026-05-04 22:33 52.83164 -45.48089 37948 ft 434 kts 261°
2026-05-04 22:33 52.82622 -45.58069 37956 ft 434 kts 261°
2026-05-04 22:34 52.82072 -45.68006 37960 ft 435 kts 261°
2026-05-04 22:34 52.81514 -45.77962 37955 ft 436 kts 261°
2026-05-04 22:35 52.80948 -45.87898 37948 ft 436 kts 261°
2026-05-04 22:35 52.80372 -45.97867 37947 ft 436 kts 261°
2026-05-04 22:36 52.79786 -46.07868 37941 ft 437 kts 260°
2026-05-04 22:36 52.79190 -46.17875 37943 ft 437 kts 260°
2026-05-04 22:37 52.78588 -46.27872 37939 ft 439 kts 260°
2026-05-04 22:37 52.77972 -46.37929 37927 ft 440 kts 260°
2026-05-04 22:38 52.77349 -46.47984 37916 ft 441 kts 260°
2026-05-04 22:38 52.76718 -46.58018 37910 ft 442 kts 260°
2026-05-04 22:39 52.76069 -46.68175 37908 ft 446 kts 260°
2026-05-04 22:39 52.75403 -46.78437 37902 ft 455 kts 260°
2026-05-04 22:40 52.74725 -46.88828 37887 ft 455 kts 259°
2026-05-04 22:40 52.74035 -46.99223 37866 ft 455 kts 259°
2026-05-04 22:41 52.73340 -47.09561 37858 ft 455 kts 259°
2026-05-04 22:41 52.72752 -47.18192 37853 ft 454 kts 259°
2026-05-04 22:42 52.72038 -47.28573 37846 ft 454 kts 259°
2026-05-04 22:42 52.71312 -47.38953 37837 ft 454 kts 259°
2026-05-04 22:43 52.70581 -47.49275 37828 ft 455 kts 259°
2026-05-04 22:43 52.69837 -47.59647 37822 ft 456 kts 259°
2026-05-04 22:44 52.69085 -47.70019 37813 ft 457 kts 259°
2026-05-04 22:44 52.68320 -47.80423 37807 ft 459 kts 259°
2026-05-04 22:45 52.67542 -47.90906 37798 ft 460 kts 258°
2026-05-04 22:45 52.66355 -48.06642 37782 ft 461 kts 258°
2026-05-04 22:46 52.65555 -48.17089 37771 ft 462 kts 258°
2026-05-04 22:46 52.64738 -48.27607 37768 ft 463 kts 258°
2026-05-04 22:47 52.63917 -48.38068 37756 ft 463 kts 258°
2026-05-04 22:47 52.63080 -48.48619 37748 ft 464 kts 258°
2026-05-04 22:48 52.62233 -48.59188 37743 ft 464 kts 258°
2026-05-04 22:48 52.61378 -48.69701 37734 ft 465 kts 258°
2026-05-04 22:49 52.60514 -48.80219 37727 ft 465 kts 258°
2026-05-04 22:49 52.59637 -48.90780 37711 ft 465 kts 258°
2026-05-04 22:50 52.58757 -49.01276 37704 ft 465 kts 258°
2026-05-04 22:50 52.57857 -49.11879 37694 ft 466 kts 258°
2026-05-04 22:51 52.56957 -49.22375 37687 ft 467 kts 257°
2026-05-04 22:51 52.56035 -49.32994 37678 ft 468 kts 257°
2026-05-04 22:52 52.55113 -49.43506 37670 ft 468 kts 257°
2026-05-04 22:52 52.54172 -49.54143 37662 ft 470 kts 257°
2026-05-04 22:53 52.53222 -49.64762 37654 ft 471 kts 257°
2026-05-04 22:53 52.52259 -49.75415 37644 ft 472 kts 257°
2026-05-04 22:54 52.51286 -49.86106 37636 ft 473 kts 257°
2026-05-04 22:54 52.50276 -49.96726 37627 ft 472 kts 254°
2026-05-04 22:55 52.48419 -50.06928 37613 ft 465 kts 244°
2026-05-04 22:55 52.45974 -50.16745 37614 ft 466 kts 243°
2026-05-04 22:56 52.43511 -50.26625 37594 ft 467 kts 244°
2026-05-04 22:56 52.41086 -50.36441 37594 ft 467 kts 244°
2026-05-04 22:57 52.38638 -50.46349 37586 ft 467 kts 243°
2026-05-04 22:57 52.36197 -50.56190 37578 ft 468 kts 244°
2026-05-04 22:58 52.33748 -50.66045 37566 ft 468 kts 243°
2026-05-04 22:58 52.31275 -50.75932 37559 ft 468 kts 243°
2026-05-04 22:59 52.28814 -50.85737 37547 ft 468 kts 243°
2026-05-04 22:59 52.26325 -50.95610 37536 ft 468 kts 243°
2026-05-04 23:00 52.23840 -51.05396 37529 ft 469 kts 243°
2026-05-04 23:00 52.21351 -51.15173 37522 ft 469 kts 243°
2026-05-04 23:01 52.18827 -51.25051 37521 ft 474 kts 243°
2026-05-04 23:01 52.16263 -51.35036 37515 ft 484 kts 243°
2026-05-04 23:02 52.13641 -51.45203 37500 ft 486 kts 243°
2026-05-04 23:02 52.11025 -51.55306 37489 ft 487 kts 243°
2026-05-04 23:03 52.08377 -51.65469 37475 ft 487 kts 243°
2026-05-04 23:03 52.05737 -51.75574 37466 ft 486 kts 243°
2026-05-04 23:04 52.03079 -51.85623 37524 ft 486 kts 240°
2026-05-04 23:04 52.01518 -51.90501 37729 ft 484 kts 237°
2026-05-04 23:04 51.99865 -51.95273 37954 ft 482 kts 236°
2026-05-04 23:05 51.98195 -51.99996 38193 ft 482 kts 236°
2026-05-04 23:05 51.96537 -52.04669 38414 ft 482 kts 236°
2026-05-04 23:05 51.94871 -52.09392 38601 ft 483 kts 237°
2026-05-04 23:05 51.93193 -52.14170 38751 ft 484 kts 237°
2026-05-04 23:06 51.91542 -52.18890 38912 ft 485 kts 237°
2026-05-04 23:06 51.89875 -52.23666 39114 ft 485 kts 237°
2026-05-04 23:06 51.88235 -52.28367 39266 ft 485 kts 237°
2026-05-04 23:06 51.86574 -52.33126 39336 ft 486 kts 237°
2026-05-04 23:07 51.83220 -52.42698 39398 ft 490 kts 237°
2026-05-04 23:07 51.79850 -52.52276 39399 ft 488 kts 237°
2026-05-04 23:08 51.76496 -52.61771 39396 ft 487 kts 237°
2026-05-04 23:08 51.73126 -52.71274 39381 ft 486 kts 237°
2026-05-04 23:09 51.69770 -52.80716 39371 ft 485 kts 237°
2026-05-04 23:09 51.66415 -52.90110 39364 ft 485 kts 237°
2026-05-04 23:10 51.63026 -52.99553 39354 ft 485 kts 237°
2026-05-04 23:10 51.59657 -53.08916 39346 ft 485 kts 237°
2026-05-04 23:11 51.56273 -53.18299 39331 ft 485 kts 237°
2026-05-04 23:11 51.52884 -53.27642 39337 ft 486 kts 237°
2026-05-04 23:12 51.49471 -53.37011 39326 ft 487 kts 237°
2026-05-04 23:12 51.46039 -53.46412 39315 ft 488 kts 237°
2026-05-04 23:13 51.42594 -53.55797 39305 ft 489 kts 237°
2026-05-04 23:13 51.39154 -53.65159 39298 ft 489 kts 237°
2026-05-04 23:14 51.35689 -53.74543 39296 ft 489 kts 237°
2026-05-04 23:14 51.32215 -53.83919 39302 ft 489 kts 237°
2026-05-04 23:15 51.28753 -53.93220 39306 ft 489 kts 237°
2026-05-04 23:15 51.25257 -54.02584 39297 ft 489 kts 237°
2026-05-04 23:16 51.21779 -54.11862 39296 ft 489 kts 237°
2026-05-04 23:16 51.18283 -54.21155 39278 ft 489 kts 237°
2026-05-04 23:17 51.14782 -54.30435 39281 ft 489 kts 237°
2026-05-04 23:17 51.11259 -54.39730 39272 ft 489 kts 237°
2026-05-04 23:18 51.07730 -54.49015 39267 ft 489 kts 237°
2026-05-04 23:18 51.04216 -54.58223 39270 ft 489 kts 237°
2026-05-04 23:19 51.00693 -54.67426 39260 ft 488 kts 237°
2026-05-04 23:19 50.97148 -54.76653 39267 ft 489 kts 237°
2026-05-04 23:20 50.93610 -54.85826 39262 ft 488 kts 237°
2026-05-04 23:20 50.90054 -54.95013 39251 ft 488 kts 237°
2026-05-04 23:21 50.86491 -55.04187 39252 ft 488 kts 236°
2026-05-04 23:21 50.82926 -55.13322 39257 ft 493 kts 236°
2026-05-04 23:22 50.79293 -55.22610 39261 ft 497 kts 236°
2026-05-04 23:22 50.75641 -55.31916 39256 ft 500 kts 236°
2026-05-04 23:23 50.71980 -55.41214 39252 ft 501 kts 236°
2026-05-04 23:23 50.68279 -55.50573 39250 ft 500 kts 236°
2026-05-04 23:24 50.64620 -55.59792 39249 ft 497 kts 236°
2026-05-04 23:24 50.60942 -55.69027 39250 ft 495 kts 236°
2026-05-04 23:25 50.57303 -55.78137 39256 ft 492 kts 236°
2026-05-04 23:25 50.53660 -55.87222 39258 ft 491 kts 236°
2026-05-04 23:26 50.50001 -55.96312 39262 ft 490 kts 236°
2026-05-04 23:26 50.46362 -56.05319 39270 ft 489 kts 236°
2026-05-04 23:27 50.42710 -56.14331 39279 ft 490 kts 236°
2026-05-04 23:27 50.39053 -56.23325 39268 ft 491 kts 236°
2026-05-04 23:28 50.35372 -56.32343 39274 ft 492 kts 236°
2026-05-04 23:28 50.31671 -56.41385 39273 ft 493 kts 236°
2026-05-04 23:29 50.28581 -56.48909 39293 ft 493 kts 236°
2026-05-04 23:29 50.24842 -56.57983 39283 ft 494 kts 236°
2026-05-04 23:30 50.21134 -56.66948 39277 ft 494 kts 236°
2026-05-04 23:30 50.17380 -56.75994 39288 ft 495 kts 236°
2026-05-04 23:31 50.13624 -56.85020 39301 ft 495 kts 236°
2026-05-04 23:31 50.09884 -56.93974 39299 ft 496 kts 235°
2026-05-04 23:32 50.06111 -57.02977 39307 ft 496 kts 235°
2026-05-04 23:32 50.02329 -57.11966 39310 ft 496 kts 235°
2026-05-04 23:33 49.98552 -57.20913 39318 ft 496 kts 235°
2026-05-04 23:33 49.94751 -57.29887 39325 ft 496 kts 235°
2026-05-04 23:34 49.90979 -57.38763 39333 ft 495 kts 235°
2026-05-04 23:34 49.87177 -57.47687 39333 ft 495 kts 235°
2026-05-04 23:35 49.83380 -57.56561 39347 ft 494 kts 235°
2026-05-04 23:35 49.79577 -57.65420 39352 ft 494 kts 235°
2026-05-04 23:36 49.75750 -57.74307 39357 ft 495 kts 235°
2026-05-04 23:36 49.71932 -57.83144 39353 ft 495 kts 235°
2026-05-04 23:37 49.68116 -57.91946 39355 ft 495 kts 235°
2026-05-04 23:37 49.64272 -58.00783 39357 ft 496 kts 235°
2026-05-04 23:38 49.60437 -58.09569 39356 ft 496 kts 235°
2026-05-04 23:38 49.56661 -58.18192 39357 ft 496 kts 235°
2026-05-04 23:39 49.52943 -58.26657 39352 ft 496 kts 235°
2026-05-04 23:39 49.49086 -58.35411 39356 ft 495 kts 234°
2026-05-04 23:40 49.45205 -58.44186 39356 ft 495 kts 234°
2026-05-04 23:40 49.41434 -58.52687 39356 ft 494 kts 234°
2026-05-04 23:41 49.37976 -58.60460 39358 ft 494 kts 234°
2026-05-04 23:41 49.34108 -58.69125 39366 ft 493 kts 234°
2026-05-04 23:42 49.30240 -58.77763 39365 ft 493 kts 234°
2026-05-04 23:42 49.26358 -58.86406 39366 ft 493 kts 234°
2026-05-04 23:43 49.22451 -58.95074 39366 ft 492 kts 234°
2026-05-04 23:43 49.18577 -59.03644 39368 ft 492 kts 234°
2026-05-04 23:44 49.14673 -59.12251 39377 ft 491 kts 234°
2026-05-04 23:44 49.10786 -59.20793 39385 ft 491 kts 234°
2026-05-04 23:45 49.06868 -59.29374 39397 ft 491 kts 234°
2026-05-04 23:45 49.02973 -59.37878 39405 ft 491 kts 234°
2026-05-04 23:46 48.99056 -59.46407 39413 ft 491 kts 234°
2026-05-04 23:46 48.95132 -59.54924 39422 ft 491 kts 234°
2026-05-04 23:47 48.91228 -59.63368 39431 ft 491 kts 234°
2026-05-04 23:47 48.87286 -59.71859 39438 ft 491 kts 234°
2026-05-04 23:48 48.83349 -59.80323 39441 ft 491 kts 234°
2026-05-04 23:48 48.79408 -59.88770 39453 ft 491 kts 234°
2026-05-04 23:49 48.75439 -59.97249 39446 ft 491 kts 234°
2026-05-04 23:49 48.71496 -60.05645 39454 ft 490 kts 234°
2026-05-04 23:50 48.67549 -60.14024 39456 ft 490 kts 234°
2026-05-04 23:50 48.63573 -60.22437 39462 ft 489 kts 234°
2026-05-04 23:51 48.59632 -60.30751 39480 ft 489 kts 234°
2026-05-04 23:51 48.55648 -60.39127 39490 ft 489 kts 234°
2026-05-04 23:52 48.51684 -60.47439 39492 ft 488 kts 234°
2026-05-04 23:52 48.47715 -60.55734 39497 ft 488 kts 234°
2026-05-04 23:53 48.43745 -60.64006 39506 ft 488 kts 234°
2026-05-04 23:53 48.39756 -60.72292 39513 ft 488 kts 234°
2026-05-04 23:54 48.35779 -60.80529 39519 ft 488 kts 234°
2026-05-04 23:54 48.31775 -60.88793 39525 ft 488 kts 233°
2026-05-04 23:55 48.27773 -60.97032 39529 ft 488 kts 233°
2026-05-04 23:56 48.21776 -61.09329 39538 ft 488 kts 233°
2026-05-04 23:56 48.17741 -61.17571 39559 ft 488 kts 233°
2026-05-04 23:57 48.13736 -61.25730 39559 ft 488 kts 233°
2026-05-04 23:57 48.09690 -61.33949 39564 ft 488 kts 233°
2026-05-04 23:58 48.05666 -61.42097 39567 ft 488 kts 233°
2026-05-04 23:58 48.01640 -61.50221 39564 ft 488 kts 233°
2026-05-04 23:59 47.97589 -61.58375 39574 ft 487 kts 233°
2026-05-04 23:59 47.93557 -61.66465 39571 ft 486 kts 233°
2026-05-05 00:00 47.89511 -61.74554 39577 ft 486 kts 233°
2026-05-05 00:00 47.85479 -61.82597 39581 ft 485 kts 233°
2026-05-05 00:01 47.81431 -61.90650 39584 ft 485 kts 233°
2026-05-05 00:01 47.77381 -61.98680 39583 ft 485 kts 233°
2026-05-05 00:02 47.73339 -62.06671 39592 ft 485 kts 233°
2026-05-05 00:02 47.69263 -62.14707 39590 ft 485 kts 233°
2026-05-05 00:03 47.65206 -62.22679 39593 ft 486 kts 233°
2026-05-05 00:03 47.61129 -62.30669 39590 ft 486 kts 233°
2026-05-05 00:04 47.57062 -62.38617 39591 ft 486 kts 233°
2026-05-05 00:04 47.52952 -62.46627 39592 ft 486 kts 233°
2026-05-05 00:05 47.48879 -62.54540 39589 ft 485 kts 233°
2026-05-05 00:05 47.44790 -62.62460 39591 ft 485 kts 233°
2026-05-05 00:06 47.40701 -62.70359 39590 ft 484 kts 233°
2026-05-05 00:06 47.36611 -62.78233 39594 ft 484 kts 232°
2026-05-05 00:07 47.32505 -62.86117 39601 ft 484 kts 232°
2026-05-05 00:07 47.28387 -62.94004 39613 ft 484 kts 232°
2026-05-05 00:08 47.24271 -63.01864 39621 ft 483 kts 232°
2026-05-05 00:08 47.20184 -63.09648 39629 ft 483 kts 232°
2026-05-05 00:09 47.16066 -63.17464 39636 ft 483 kts 232°
2026-05-05 00:09 47.11935 -63.25286 39638 ft 483 kts 232°
2026-05-05 00:10 47.07822 -63.33052 39648 ft 483 kts 232°
2026-05-05 00:10 47.03676 -63.40856 39645 ft 483 kts 232°
2026-05-05 00:11 46.99559 -63.48588 39651 ft 483 kts 232°
2026-05-05 00:11 46.95401 -63.56368 39658 ft 483 kts 232°
2026-05-05 00:12 46.91277 -63.64067 39670 ft 483 kts 232°
2026-05-05 00:12 46.87113 -63.71818 39677 ft 483 kts 232°
2026-05-05 00:13 46.82962 -63.79522 39684 ft 483 kts 232°
2026-05-05 00:13 46.78812 -63.87204 39691 ft 483 kts 232°
2026-05-05 00:14 46.74629 -63.94929 39699 ft 483 kts 232°
2026-05-05 00:14 46.70478 -64.02572 39696 ft 483 kts 232°
2026-05-05 00:15 46.66298 -64.10247 39713 ft 483 kts 232°
2026-05-05 00:15 46.62097 -64.17934 39714 ft 483 kts 232°
2026-05-05 00:16 46.57926 -64.25548 39712 ft 483 kts 232°
2026-05-05 00:16 46.53741 -64.33166 39702 ft 482 kts 232°
2026-05-05 00:17 46.50244 -64.39518 39715 ft 482 kts 232°
2026-05-05 00:17 46.46037 -64.47140 39720 ft 482 kts 232°
2026-05-05 00:18 46.41854 -64.54697 39721 ft 482 kts 232°
2026-05-05 00:18 46.37660 -64.62252 39721 ft 482 kts 232°
2026-05-05 00:19 46.33437 -64.69841 39721 ft 482 kts 232°
2026-05-05 00:19 46.29216 -64.77403 39730 ft 482 kts 232°
2026-05-05 00:20 46.25006 -64.84925 39731 ft 482 kts 232°
2026-05-05 00:20 46.20808 -64.92408 39732 ft 482 kts 232°
2026-05-05 00:21 46.16582 -64.99921 39729 ft 482 kts 232°
2026-05-05 00:21 46.12323 -65.07469 39732 ft 482 kts 232°
2026-05-05 00:22 46.08082 -65.14967 39733 ft 482 kts 231°
2026-05-05 00:22 46.03855 -65.22418 39742 ft 482 kts 231°
2026-05-05 00:23 45.99617 -65.29869 39746 ft 482 kts 231°
2026-05-05 00:23 45.95357 -65.37340 39753 ft 481 kts 232°
2026-05-05 00:24 45.91108 -65.44770 39755 ft 480 kts 231°
2026-05-05 00:24 45.86881 -65.52146 39763 ft 479 kts 231°
2026-05-05 00:25 45.82659 -65.59490 39770 ft 478 kts 231°
2026-05-05 00:25 45.78407 -65.66869 39778 ft 478 kts 231°
2026-05-05 00:26 45.74174 -65.74191 39786 ft 477 kts 231°
2026-05-05 00:26 45.69929 -65.81518 39789 ft 478 kts 231°
2026-05-05 00:27 45.65706 -65.88790 39797 ft 478 kts 231°
2026-05-05 00:27 45.61438 -65.96118 39797 ft 479 kts 231°
2026-05-05 00:28 45.57189 -66.03392 39796 ft 479 kts 231°
2026-05-05 00:28 45.52915 -66.10692 39795 ft 479 kts 231°
2026-05-05 00:29 45.48632 -66.17989 39795 ft 479 kts 231°
2026-05-05 00:29 45.44349 -66.25269 39797 ft 479 kts 231°
2026-05-05 00:30 45.40068 -66.32521 39797 ft 479 kts 231°
2026-05-05 00:30 45.35766 -66.39797 39794 ft 479 kts 231°
2026-05-05 00:31 45.31474 -66.47034 39795 ft 479 kts 231°
2026-05-05 00:31 45.27189 -66.54239 39793 ft 479 kts 231°
2026-05-05 00:32 45.22902 -66.61428 39794 ft 477 kts 231°
2026-05-05 00:32 45.18586 -66.68654 39798 ft 477 kts 231°
2026-05-05 00:33 45.14293 -66.75817 39805 ft 477 kts 231°
2026-05-05 00:33 45.10019 -66.82932 39807 ft 477 kts 231°
2026-05-05 00:34 45.05709 -66.90088 39801 ft 476 kts 231°
2026-05-05 00:34 45.01391 -66.97244 39807 ft 477 kts 231°
2026-05-05 00:35 44.97101 -67.04333 39807 ft 477 kts 231°
2026-05-05 00:35 44.92774 -67.11465 39812 ft 477 kts 231°
2026-05-05 00:36 44.88102 -67.18038 39807 ft 478 kts 220°
2026-05-05 00:36 44.82756 -67.23672 39807 ft 479 kts 218°
2026-05-05 00:37 44.77390 -67.29257 39828 ft 479 kts 218°
2026-05-05 00:37 44.72059 -67.34849 39827 ft 480 kts 218°
2026-05-05 00:38 44.66703 -67.40477 39825 ft 481 kts 218°
2026-05-05 00:38 44.61352 -67.46096 39816 ft 481 kts 218°
2026-05-05 00:39 44.55983 -67.51712 39829 ft 480 kts 218°
2026-05-05 00:39 44.50606 -67.57329 39832 ft 480 kts 218°
2026-05-05 00:40 44.45276 -67.62879 39827 ft 480 kts 218°
2026-05-05 00:40 44.39926 -67.68438 39834 ft 480 kts 218°
2026-05-05 00:41 44.34537 -67.74023 39828 ft 480 kts 218°
2026-05-05 00:41 44.29205 -67.79535 39832 ft 479 kts 218°
2026-05-05 00:42 44.23812 -67.85101 39836 ft 480 kts 218°
2026-05-05 00:42 44.18451 -67.90623 39833 ft 479 kts 218°
2026-05-05 00:43 44.13110 -67.96107 39834 ft 479 kts 218°
2026-05-05 00:43 44.07737 -68.01611 39826 ft 478 kts 218°
2026-05-05 00:44 44.02393 -68.07072 39825 ft 478 kts 218°
2026-05-05 00:44 43.97054 -68.12518 39837 ft 477 kts 218°
2026-05-05 00:45 43.91691 -68.17972 39838 ft 477 kts 218°
2026-05-05 00:45 43.86318 -68.23430 39834 ft 478 kts 218°
2026-05-05 00:46 43.80973 -68.28848 39832 ft 477 kts 218°
2026-05-05 00:46 43.75605 -68.34277 39833 ft 477 kts 218°
2026-05-05 00:47 43.70230 -68.39694 39838 ft 477 kts 218°
2026-05-05 00:47 43.64884 -68.45071 39835 ft 477 kts 218°
2026-05-05 00:48 43.59519 -68.50454 39825 ft 476 kts 218°
2026-05-05 00:48 43.54165 -68.55819 39827 ft 477 kts 218°
2026-05-05 00:49 43.48785 -68.61198 39833 ft 476 kts 218°
2026-05-05 00:49 43.43434 -68.66533 39831 ft 476 kts 218°
2026-05-05 00:50 43.38076 -68.71865 39835 ft 476 kts 218°
2026-05-05 00:50 43.32696 -68.77208 39836 ft 476 kts 218°
2026-05-05 00:51 43.27305 -68.82545 39841 ft 477 kts 218°
2026-05-05 00:51 43.21930 -68.87850 39846 ft 477 kts 218°
2026-05-05 00:52 43.16537 -68.93167 39852 ft 477 kts 218°
2026-05-05 00:52 43.11170 -68.98448 39849 ft 477 kts 218°
2026-05-05 00:53 43.05791 -69.03734 39856 ft 477 kts 218°
2026-05-05 00:53 43.00398 -69.09018 39859 ft 477 kts 217°
2026-05-05 00:54 42.94978 -69.14314 39862 ft 477 kts 217°
2026-05-05 00:54 42.89609 -69.19547 39864 ft 477 kts 217°
2026-05-05 00:55 42.84175 -69.24831 39859 ft 477 kts 217°
2026-05-05 00:55 42.78804 -69.30047 39868 ft 476 kts 217°
2026-05-05 00:56 42.73408 -69.35277 39872 ft 475 kts 217°
2026-05-05 00:56 42.68045 -69.40471 39881 ft 475 kts 217°
2026-05-05 00:57 42.62625 -69.45697 39877 ft 476 kts 217°
2026-05-05 00:57 42.57253 -69.50875 39877 ft 476 kts 217°
2026-05-05 00:58 42.51810 -69.56092 39887 ft 477 kts 217°
2026-05-05 00:58 42.46411 -69.61260 39891 ft 477 kts 217°
2026-05-05 00:59 42.40990 -69.66447 39896 ft 476 kts 217°
2026-05-05 00:59 42.35608 -69.71584 39896 ft 476 kts 217°
2026-05-05 01:00 42.30200 -69.76743 39899 ft 474 kts 217°
2026-05-05 01:00 42.24803 -69.81863 39909 ft 475 kts 217°
2026-05-05 01:01 42.19387 -69.86990 39910 ft 474 kts 217°
2026-05-05 01:01 42.14002 -69.92102 39920 ft 473 kts 217°
2026-05-05 01:02 42.08623 -69.97172 39912 ft 471 kts 217°
2026-05-05 01:02 42.03373 -70.02450 39929 ft 469 kts 224°
2026-05-05 01:03 41.99557 -70.07674 39936 ft 471 kts 231°
2026-05-05 01:03 41.95026 -70.15892 39940 ft 471 kts 236°
2026-05-05 01:04 41.91835 -70.21876 39940 ft 474 kts 236°
2026-05-05 01:04 41.86044 -70.32620 39933 ft 473 kts 235°
2026-05-05 01:05 41.82137 -70.39784 39937 ft 475 kts 235°
2026-05-05 01:05 41.78250 -70.46910 39934 ft 472 kts 235°
2026-05-05 01:06 41.74375 -70.54014 39940 ft 471 kts 235°
2026-05-05 01:06 41.70492 -70.61095 39952 ft 472 kts 235°
2026-05-05 01:07 41.66616 -70.68144 39951 ft 470 kts 235°
2026-05-05 01:07 41.62760 -70.75141 39948 ft 468 kts 235°
2026-05-05 01:08 41.58905 -70.82133 39935 ft 458 kts 235°
2026-05-05 01:08 41.57049 -70.85489 39852 ft 447 kts 235°
2026-05-05 01:08 41.55190 -70.88846 39093 ft 449 kts 235°
2026-05-05 01:09 41.53336 -70.92188 38546 ft 446 kts 235°
2026-05-05 01:09 41.51497 -70.95503 38109 ft 440 kts 235°
2026-05-05 01:09 41.49702 -70.98737 37662 ft 435 kts 236°
2026-05-05 01:09 41.47909 -71.01966 37216 ft 430 kts 236°
2026-05-05 01:10 41.46132 -71.05163 36783 ft 426 kts 236°
2026-05-05 01:10 41.44372 -71.08325 36356 ft 421 kts 236°
2026-05-05 01:10 41.42644 -71.11423 35936 ft 417 kts 236°
2026-05-05 01:10 41.40911 -71.14529 35495 ft 413 kts 236°
2026-05-05 01:11 41.39196 -71.17598 35055 ft 410 kts 236°
2026-05-05 01:11 41.37513 -71.20609 34632 ft 407 kts 236°
2026-05-05 01:11 41.35817 -71.23638 34209 ft 404 kts 237°
2026-05-05 01:11 41.34142 -71.26626 33763 ft 400 kts 237°
2026-05-05 01:12 41.32496 -71.29561 33361 ft 397 kts 237°
2026-05-05 01:12 41.30843 -71.32505 32941 ft 394 kts 237°
2026-05-05 01:12 41.29208 -71.35414 32530 ft 391 kts 237°
2026-05-05 01:12 41.27600 -71.38276 32129 ft 388 kts 237°
2026-05-05 01:13 41.25984 -71.41148 31698 ft 386 kts 237°
2026-05-05 01:13 41.24373 -71.44009 31279 ft 383 kts 237°
2026-05-05 01:13 41.22799 -71.46802 30863 ft 380 kts 237°
2026-05-05 01:13 41.21212 -71.49616 30456 ft 377 kts 237°
2026-05-05 01:14 41.19637 -71.52403 30050 ft 375 kts 237°
2026-05-05 01:14 41.18070 -71.55173 29628 ft 373 kts 237°
2026-05-05 01:14 41.16726 -71.58063 29172 ft 364 kts 252°
2026-05-05 01:14 41.16155 -71.61235 28750 ft 355 kts 264°
2026-05-05 01:15 41.15787 -71.64490 28316 ft 354 kts 264°
2026-05-05 01:15 41.15416 -71.67719 27880 ft 354 kts 263°
2026-05-05 01:15 41.15041 -71.70913 27449 ft 354 kts 263°
2026-05-05 01:15 41.14654 -71.74152 27015 ft 354 kts 263°
2026-05-05 01:16 41.14261 -71.77384 26580 ft 354 kts 263°
2026-05-05 01:16 41.13865 -71.80607 26151 ft 354 kts 263°
2026-05-05 01:16 41.13467 -71.83829 25723 ft 354 kts 262°
2026-05-05 01:16 41.13070 -71.87024 25301 ft 354 kts 262°
2026-05-05 01:17 41.12666 -71.90268 24876 ft 354 kts 262°
2026-05-05 01:17 41.12261 -71.93503 24449 ft 354 kts 262°
2026-05-05 01:17 41.11861 -71.96695 24028 ft 354 kts 262°
2026-05-05 01:17 41.11455 -71.99930 23601 ft 354 kts 262°
2026-05-05 01:18 41.11048 -72.03166 23166 ft 354 kts 262°
2026-05-05 01:18 41.10646 -72.06358 22739 ft 354 kts 262°
2026-05-05 01:18 41.10239 -72.09580 22311 ft 354 kts 261°
2026-05-05 01:18 41.09804 -72.12818 21869 ft 355 kts 258°
2026-05-05 01:19 41.09151 -72.15949 21421 ft 355 kts 253°
2026-05-05 01:19 41.08357 -72.19075 20986 ft 353 kts 252°
2026-05-05 01:19 41.07565 -72.22065 20539 ft 342 kts 252°
2026-05-05 01:19 41.06787 -72.25025 20111 ft 338 kts 252°
2026-05-05 01:20 41.06031 -72.27949 19702 ft 339 kts 252°
2026-05-05 01:20 41.05277 -72.30908 19275 ft 339 kts 252°
2026-05-05 01:20 41.04520 -72.33902 18834 ft 340 kts 252°
2026-05-05 01:20 41.03782 -72.36849 18390 ft 335 kts 252°
2026-05-05 01:21 41.03059 -72.39741 17953 ft 324 kts 252°
2026-05-05 01:21 41.02370 -72.42497 17566 ft 312 kts 252°
2026-05-05 01:21 41.01690 -72.45213 17189 ft 311 kts 252°
2026-05-05 01:21 41.01007 -72.47944 16788 ft 312 kts 252°
2026-05-05 01:22 41.00326 -72.50661 16386 ft 313 kts 252°
2026-05-05 01:22 40.99637 -72.53413 15973 ft 314 kts 252°
2026-05-05 01:22 40.98950 -72.56147 15557 ft 316 kts 252°
2026-05-05 01:22 40.98262 -72.58888 15124 ft 309 kts 252°
2026-05-05 01:23 40.97585 -72.61577 14730 ft 307 kts 253°
2026-05-05 01:23 40.96914 -72.64247 14320 ft 303 kts 253°
2026-05-05 01:23 40.96245 -72.66901 13929 ft 304 kts 252°
2026-05-05 01:23 40.95583 -72.69529 13538 ft 305 kts 253°
2026-05-05 01:24 40.94904 -72.72212 13134 ft 307 kts 252°
2026-05-05 01:24 40.94225 -72.74896 12729 ft 307 kts 252°
2026-05-05 01:24 40.93559 -72.77522 12327 ft 298 kts 252°
2026-05-05 01:24 40.92636 -72.79924 12038 ft 290 kts 232°
2026-05-05 01:25 40.91141 -72.81749 12040 ft 300 kts 219°
2026-05-05 01:25 40.89447 -72.83372 12023 ft 298 kts 218°
2026-05-05 01:25 40.87786 -72.84938 12017 ft 293 kts 218°
2026-05-05 01:25 40.86128 -72.86496 11912 ft 291 kts 218°
2026-05-05 01:26 40.84481 -72.88052 11583 ft 290 kts 218°
2026-05-05 01:26 40.82845 -72.89607 11186 ft 290 kts 218°
2026-05-05 01:26 40.81207 -72.91171 10824 ft 287 kts 218°
2026-05-05 01:26 40.79619 -72.92685 10386 ft 277 kts 218°
2026-05-05 01:27 40.78083 -72.94152 9918 ft 274 kts 218°
2026-05-05 01:27 40.76556 -72.95611 9690 ft 269 kts 218°
2026-05-05 01:27 40.75039 -72.97061 9467 ft 269 kts 218°
2026-05-05 01:27 40.73512 -72.98519 9241 ft 270 kts 218°
2026-05-05 01:28 40.72003 -72.99960 9108 ft 267 kts 218°
2026-05-05 01:28 40.70505 -73.01387 9057 ft 264 kts 218°
2026-05-05 01:28 40.69180 -73.03001 9021 ft 263 kts 239°
2026-05-05 01:28 40.68565 -73.05271 8998 ft 264 kts 264°
2026-05-05 01:29 40.68683 -73.07670 8722 ft 263 kts 286°
2026-05-05 01:29 40.69394 -73.09899 8337 ft 264 kts 295°
2026-05-05 01:29 40.70243 -73.12047 8040 ft 262 kts 296°
2026-05-05 01:29 40.71093 -73.14130 7743 ft 261 kts 296°
2026-05-05 01:30 40.71955 -73.16232 7462 ft 259 kts 297°
2026-05-05 01:30 40.72816 -73.18315 7268 ft 257 kts 297°
2026-05-05 01:30 40.73680 -73.20387 7115 ft 257 kts 297°
2026-05-05 01:30 40.74546 -73.22452 6973 ft 258 kts 297°
2026-05-05 01:31 40.75220 -73.24616 6530 ft 259 kts 281°
2026-05-05 01:31 40.75494 -73.26968 6279 ft 259 kts 275°
2026-05-05 01:31 40.75698 -73.29342 6048 ft 258 kts 275°
2026-05-05 01:31 40.75913 -73.31659 5831 ft 256 kts 276°
2026-05-05 01:32 40.76151 -73.33982 5618 ft 254 kts 276°
2026-05-05 01:32 40.76402 -73.36274 5400 ft 252 kts 277°
2026-05-05 01:32 40.76663 -73.38558 5202 ft 250 kts 277°
2026-05-05 01:32 40.76930 -73.40813 5001 ft 250 kts 277°
2026-05-05 01:33 40.77203 -73.43075 4797 ft 248 kts 277°
2026-05-05 01:33 40.77473 -73.45302 4598 ft 246 kts 277°
2026-05-05 01:33 40.77746 -73.47529 4403 ft 245 kts 277°
2026-05-05 01:33 40.78022 -73.49769 4196 ft 245 kts 277°
2026-05-05 01:34 40.78296 -73.51989 3988 ft 245 kts 277°
2026-05-05 01:34 40.78569 -73.54185 3808 ft 245 kts 277°
2026-05-05 01:34 40.78841 -73.56397 3617 ft 241 kts 277°
2026-05-05 01:34 40.79107 -73.58561 3413 ft 236 kts 277°
2026-05-05 01:35 40.79363 -73.60643 3202 ft 223 kts 276°
2026-05-05 01:35 40.79277 -73.62570 3063 ft 202 kts 245°
2026-05-05 01:35 40.78454 -73.63924 2996 ft 182 kts 219°
2026-05-05 01:35 40.77477 -73.64943 2983 ft 176 kts 218°
2026-05-05 01:36 40.76512 -73.65925 2744 ft 173 kts 217°
2026-05-05 01:36 40.75530 -73.66817 2510 ft 169 kts 212°
2026-05-05 01:36 40.74524 -73.67634 2309 ft 172 kts 211°
2026-05-05 01:36 40.73510 -73.68434 2054 ft 165 kts 211°
2026-05-05 01:37 40.72550 -73.69190 1835 ft 157 kts 210°
2026-05-05 01:37 40.71644 -73.69901 1628 ft 149 kts 210°
2026-05-05 01:37 40.70759 -73.70596 1444 ft 146 kts 210°
2026-05-05 01:37 40.69883 -73.71284 1262 ft 143 kts 210°
2026-05-05 01:38 40.69067 -73.71924 1067 ft 133 kts 210°
2026-05-05 01:38 40.68280 -73.72542 915 ft 131 kts 210°
2026-05-05 01:38 40.67497 -73.73156 725 ft 131 kts 210°
2026-05-05 01:38 40.66714 -73.73774 542 ft 131 kts 210°
2026-05-05 01:39 40.65933 -73.74376 392 ft 130 kts 209°
2026-05-05 01:39 40.65144 -73.74988 218 ft 132 kts 210°
2026-05-05 01:39 40.64357 -73.75617 46 ft 132 kts 210°
2026-05-05 01:39 40.63645 -73.76168 27 ft 99 kts 211°
2026-05-05 01:40 40.63209 -73.76509 25 ft 46 kts 211°
2026-05-05 01:40 40.63016 -73.76707 25 ft 32 kts 229°
2026-05-05 01:40 40.62930 -73.76894 27 ft 12 kts 251°
2026-05-05 01:40 40.62931 -73.76965 29 ft 5 kts 286°
2026-05-05 01:41 40.62932 -73.76969 27 ft 0 kts 288°
2026-05-05 01:41 40.62932 -73.76970 27 ft 0 kts 288°
2026-05-05 01:41 40.62933 -73.76972 29 ft 0 kts 289°
2026-05-05 01:41 40.62933 -73.76975 27 ft 0 kts 289°
2026-05-05 01:42 40.62934 -73.76980 26 ft 1 kts 289°
2026-05-05 01:42 40.62957 -73.77034 26 ft 14 kts 300°
2026-05-05 01:42 40.63008 -73.77148 28 ft 14 kts 301°
2026-05-05 01:42 40.63060 -73.77261 32 ft 14 kts 301°
2026-05-05 01:43 40.63112 -73.77374 32 ft 14 kts 301°
2026-05-05 01:43 40.63163 -73.77486 34 ft 14 kts 301°
2026-05-05 01:43 40.63215 -73.77601 33 ft 14 kts 300°
2026-05-05 01:43 40.63268 -73.77720 32 ft 15 kts 300°
2026-05-05 01:44 40.63323 -73.77842 31 ft 15 kts 301°
2026-05-05 01:44 40.63380 -73.77971 28 ft 17 kts 299°
2026-05-05 01:44 40.63439 -73.78106 29 ft 17 kts 300°
2026-05-05 01:44 40.63499 -73.78240 29 ft 14 kts 300°
2026-05-05 01:45 40.63538 -73.78325 30 ft 10 kts 301°
2026-05-05 01:45 40.63573 -73.78402 33 ft 10 kts 301°
2026-05-05 01:45 40.63608 -73.78480 33 ft 10 kts 300°
2026-05-05 01:45 40.63643 -73.78558 33 ft 10 kts 300°
2026-05-05 01:46 40.63680 -73.78639 33 ft 10 kts 301°
2026-05-05 01:46 40.63717 -73.78720 34 ft 10 kts 301°
2026-05-05 01:46 40.63754 -73.78801 33 ft 11 kts 301°
2026-05-05 01:46 40.63798 -73.78898 29 ft 14 kts 301°
2026-05-05 01:47 40.63849 -73.79010 28 ft 15 kts 301°
2026-05-05 01:47 40.63890 -73.79099 27 ft 9 kts 301°
2026-05-05 01:47 40.63924 -73.79175 27 ft 11 kts 300°
2026-05-05 01:47 40.63963 -73.79262 27 ft 11 kts 300°
2026-05-05 01:48 40.63997 -73.79338 27 ft 8 kts 301°
2026-05-05 01:48 40.64026 -73.79400 27 ft 8 kts 302°
2026-05-05 01:48 40.64055 -73.79462 27 ft 8 kts 302°
2026-05-05 01:48 40.64094 -73.79509 27 ft 8 kts 347°
2026-05-05 01:49 40.64151 -73.79509 29 ft 8 kts
2026-05-05 01:49 40.64207 -73.79505 29 ft 8 kts
2026-05-05 01:49 40.64254 -73.79501 29 ft 6 kts
2026-05-05 01:49 40.64283 -73.79498 29 ft 6 kts
2026-05-05 01:50 40.64342 -73.79493 29 ft 6 kts
2026-05-05 01:50 40.64387 -73.79491 28 ft 6 kts 358°
2026-05-05 01:50 40.64416 -73.79493 29 ft 6 kts 356°
2026-05-05 01:50 40.64479 -73.79499 28 ft 7 kts 356°
2026-05-05 01:51 40.64511 -73.79502 29 ft 7 kts 355°
2026-05-05 01:51 40.64562 -73.79512 28 ft 8 kts 347°
2026-05-05 01:51 40.64614 -73.79539 27 ft 8 kts 330°
2026-05-05 01:51 40.64660 -73.79580 28 ft 8 kts 325°
2026-05-05 01:52 40.64704 -73.79620 28 ft 7 kts 324°
2026-05-05 01:52 40.64741 -73.79617 28 ft 6 kts 37°
2026-05-05 01:52 40.64764 -73.79572 28 ft 6 kts 60°
2026-05-05 01:52 40.64785 -73.79525 28 ft 6 kts 60°
2026-05-05 01:53 40.64806 -73.79477 28 ft 6 kts 60°
2026-05-05 01:53 40.64822 -73.79440 28 ft 1 kts 60°
2026-05-05 01:53 40.64826 -73.79432 28 ft 1 kts 61°
2026-05-05 01:53 40.64830 -73.79421 28 ft 2 kts 61°
2026-05-05 01:54 40.64838 -73.79401 28 ft 3 kts 61°
2026-05-05 01:54 40.64848 -73.79377 28 ft 3 kts 62°
2026-05-05 01:54 40.64859 -73.79351 28 ft 3 kts 62°
2026-05-05 01:54 40.64871 -73.79323 28 ft 4 kts 61°
2026-05-05 01:55 40.64887 -73.79283 28 ft 8 kts 60°
2026-05-05 01:55 40.64914 -73.79222 28 ft 8 kts 60°
2026-05-05 01:55 40.64940 -73.79160 27 ft 8 kts 60°
2026-05-05 01:55 40.64965 -73.79100 28 ft 5 kts 65°
2026-05-05 01:56 40.64951 -73.79069 28 ft 4 kts 152°
2026-05-05 01:56 40.64925 -73.79061 27 ft 4 kts 169°
2026-05-05 01:56 40.64909 -73.79057 28 ft 1 kts 171°
2026-05-05 01:56 40.64903 -73.79056 28 ft 0 kts 171°